Starlink 4293

operational
NORAD ID: 52989 Int'l Des: 2022-076 Owner: SPXS Country: US Constellation: starlink
LEOCIRCULAR

Über Starlink 4293

Beschreibung wird geladen...

Live-Position

3D-Globus wird geladen...

Nächste Überflüge

Höhenverlauf

Altitude vs Time

uPlot chart will show altitude changes over time

Zweizeiliger Elementsatz

1 52989U 22076D 25351.60966002 -.00000984 00000-0 -43752-4 0 9993
2 52989 53.2197 112.5902 0001242 83.1674 276.9459 15.08838980190316
Epoch: 17. Dez. 2025 • Age: 26 hours

Aktueller Status

Höhe 541.5 km
Geschwindigkeit 7.60 km/s
Subsatellitenpunkt 33.42°N, 79.28°W
Startdatum 7. Juli 2022
Alter 3.4 years
Typ internet

Technische Details

Klassifizierung Payload
Masse 297.00 kg
Trockenmasse 275.00 kg
Gesamtmasse 297.00 kg
Länge 0.20 m
Durchmesser 2.80 m
Spannweite 9.00 m
Form Box + pan
Hersteller SPXS
Bus-Typ Starlink
Phasenstatus In Orbit
Besitzer/Staat SPXS/US

Große Konstellationen

Loading constellations...